TimePDT,TemperatureF,Dew PointF,Humidity,Sea Level PressureIn,VisibilityMPH,Wind Direction,Wind SpeedMPH,Gust SpeedMPH,PrecipitationIn,Events,Conditions,WindDirDegrees,DateUTC
12:53 AM,39.0,30.0,70,30.00,10.0,Calm,Calm,-,N/A,,Clear,0,2012-05-11 07:53:00
1:53 AM,37.0,28.9,73,30.01,10.0,South,3.5,-,N/A,,Clear,190,2012-05-11 08:53:00
2:53 AM,33.1,28.0,82,30.02,10.0,SSW,3.5,-,N/A,,Clear,210,2012-05-11 09:53:00
3:53 AM,30.9,26.1,82,30.03,10.0,South,3.5,-,N/A,,Clear,170,2012-05-11 10:53:00
4:53 AM,30.9,26.1,82,30.03,10.0,South,4.6,-,N/A,,Clear,190,2012-05-11 11:53:00
5:53 AM,28.9,25.0,85,30.04,10.0,Calm,Calm,-,N/A,,Clear,0,2012-05-11 12:53:00
6:53 AM,30.9,25.0,79,30.05,10.0,South,3.5,-,N/A,,Clear,180,2012-05-11 13:53:00
7:53 AM,39.0,26.1,60,30.06,10.0,Calm,Calm,-,N/A,,Clear,0,2012-05-11 14:53:00
8:53 AM,51.1,19.9,29,30.05,10.0,NNE,4.6,-,N/A,,Clear,30,2012-05-11 15:53:00
9:53 AM,54.0,18.0,24,30.04,10.0,North,3.5,-,N/A,,Clear,10,2012-05-11 16:53:00
10:53 AM,57.9,17.1,20,30.05,10.0,Calm,Calm,-,N/A,,Clear,0,2012-05-11 17:53:00
11:53 AM,60.1,17.1,19,30.05,10.0,Variable,6.9,-,N/A,,Clear,0,2012-05-11 18:53:00
12:53 PM,63.0,19.0,18,30.04,10.0,Variable,5.8,-,N/A,,Clear,0,2012-05-11 19:53:00
1:53 PM,62.1,18.0,18,30.04,10.0,Variable,3.5,-,N/A,,Clear,0,2012-05-11 20:53:00
2:53 PM,64.0,15.1,15,30.05,10.0,NNE,11.5,-,N/A,,Clear,30,2012-05-11 21:53:00
3:53 PM,66.0,16.0,15,30.04,10.0,NNE,6.9,-,N/A,,Clear,20,2012-05-11 22:53:00
4:53 PM,64.9,15.1,15,30.04,10.0,Variable,3.5,-,N/A,,Clear,0,2012-05-11 23:53:00
5:53 PM,64.9,15.1,15,30.05,10.0,NNE,5.8,-,N/A,,Clear,30,2012-05-12 00:53:00
6:53 PM,59.0,28.9,32,30.07,10.0,Calm,Calm,-,N/A,,Clear,0,2012-05-12 01:53:00
7:53 PM,55.0,32.0,42,30.07,10.0,Calm,Calm,-,N/A,,Clear,0,2012-05-12 02:53:00
8:53 PM,50.0,33.1,52,30.08,10.0,Calm,Calm,-,N/A,,Clear,0,2012-05-12 03:53:00
9:53 PM,46.9,35.1,63,30.10,10.0,Calm,Calm,-,N/A,,Clear,0,2012-05-12 04:53:00
10:53 PM,44.1,34.0,68,30.11,10.0,Calm,Calm,-,N/A,,Clear,0,2012-05-12 05:53:00
11:53 PM,42.1,33.1,70,30.12,10.0,Calm,Calm,-,N/A,,Clear,0,2012-05-12 06:53:00